Zurück zum Katalog

STARLINK-5495

AktivKommunikationVLEO
NORAD 55635·PAYLOAD·🇺🇸 United States

Gestartet Feb 17, 2023 von Vandenberg Space Force Base

Loading…

Nächste Überflüge (nächste 24 Stunden)

TLE

AktuellSource: CelesTrak SupGP

Epoche: Sep 14, 2026, 20:58 UTC

1 55635C 23021H   26257.87409722  .00032521  00000+0  27252-2 0  2572
2 55635  70.0013  67.4691 0002984 274.1968 283.6619 14.98317374    13

Verfolge STARLINK-5495 in Echtzeit mit AllMySat

Download on the App Store